SM6PGP-2 Weather Reports


Display with metric or nautical units.
time (UTC)temp
F
wind
direction
speed
MPH
gust
MPH
rain 1hr
in
rain 24hr
in
rain mn
in
humidity
%
barometer
mb
20260503030044 51 306 3.0 9.0 0.00 0.00 0.00 83 1007.3
20260503025539 52 279 2.0 5.0 0.00 0.00 0.00 83 1007.4
20260503025034 52 261 5.0 10.0 0.00 0.00 0.00 81 1007.4
20260503024528 52 315 6.0 14.0 0.00 0.00 0.00 81 1007.5
20260503024023 52 270 14.0 14.0 0.00 0.00 0.00 81 1007.4
20260503023518 52 270 10.0 10.0 0.00 0.00 0.00 81 1007.4
20260503023013 53 265 5.0 11.0 0.00 0.00 0.00 81 1007.4
20260503022508 53 270 12.0 14.0 0.00 0.00 0.00 81 1007.3
20260503022002 53 292 7.0 12.0 0.00 0.00 0.00 81 1007.3
20260503021457 53 234 10.0 12.0 0.00 0.00 0.00 81 1007.3
20260503020952 52 252 4.0 12.0 0.00 0.00 0.00 81 1007.3
20260503020447 52 216 5.0 7.0 0.00 0.00 0.00 80 1007.4
20260503015942 52 180 7.0 7.0 0.00 0.00 0.00 79 1007.3
20260503015436 52 148 3.0 6.0 0.00 0.00 0.00 79 1007.3
20260503014931 52 157 4.0 6.0 0.00 0.00 0.00 79 1007.4
20260503014426 52 171 3.0 5.0 0.00 0.00 0.00 79 1007.4
20260503013921 52 166 4.0 7.0 0.00 0.00 0.00 79 1007.5
20260503013416 52 139 5.0 7.0 0.00 0.00 0.00 79 1007.4
20260503012910 52 153 4.0 7.0 0.00 0.00 0.00 79 1007.4
20260503012405 52 157 5.0 9.0 0.00 0.00 0.00 79 1007.4
20260503011900 52 171 6.0 8.0 0.00 0.00 0.00 79 1007.5
20260503011355 52 184 8.0 10.0 0.00 0.00 0.00 79 1007.5
20260503010850 52 180 6.0 7.0 0.00 0.00 0.00 79 1007.7
20260503010345 52 180 4.0 9.0 0.00 0.00 0.00 78 1007.6
20260503005839 52 180 5.0 14.0 0.00 0.00 0.00 78 1007.7
20260503005334 52 175 9.0 15.0 0.00 0.00 0.00 78 1007.7
20260503004829 52 180 10.0 10.0 0.00 0.00 0.00 78 1007.6
20260503004324 52 180 7.0 10.0 0.00 0.00 0.00 77 1007.8
20260503003819 52 144 5.0 8.0 0.00 0.00 0.00 78 1007.8
20260503003313 52 180 4.0 7.0 0.00 0.00 0.00 78 1007.9
20260503002808 52 144 8.0 8.0 0.00 0.00 0.00 78 1007.8
20260503002305 52 135 5.0 5.0 0.00 0.00 0.00 77 1007.8
20260503001758 52 144 3.0 5.0 0.00 0.00 0.00 77 1007.9
20260503001253 52 175 4.0 5.0 0.00 0.00 0.00 77 1008.1
20260503000747 52 153 3.0 4.0 0.00 0.00 0.00 76 1008.1
20260503000242 52 180 2.0 3.0 0.00 0.00 0.00 76 1008.0
20260502235737 52 135 1.0 2.0 0.00 0.00 0.00 77 1008.1
20260502235232 52 135 0.0 1.0 0.00 0.00 0.00 76 1008.0
20260502234726 52 180 1.0 2.0 0.00 0.00 0.00 76 1008.1
20260502234221 51 148 2.0 4.0 0.00 0.00 0.00 75 1008.1
20260502233716 51 180 4.0 4.0 0.00 0.00 0.00 75 1008.2
20260502233211 51 180 2.0 3.0 0.00 0.00 0.00 76 1008.3
20260502232706 51 135 0.0 0.0 0.00 0.00 0.00 76 1008.2
20260502232201 51 135 0.0 0.0 0.00 0.00 0.00 76 1008.2
20260502231655 51 135 0.0 1.0 0.00 0.00 0.00 75 1008.4
20260502231150 51 135 0.0 2.0 0.00 0.00 0.00 75 1008.3
20260502230645 51 135 1.0 2.0 0.00 0.00 0.00 75 1008.4
20260502230140 51 180 2.0 3.0 0.00 0.00 0.00 75 1008.3
20260502225635 51 225 3.0 3.0 0.00 0.00 0.00 75 1008.4
20260502225129 51 180 1.0 2.0 0.00 0.00 0.00 75 1008.4
20260502224624 51 157 2.0 3.0 0.00 0.00 0.00 75 1008.4
20260502224119 51 135 3.0 3.0 0.00 0.00 0.00 75 1008.4
20260502223614 51 180 1.0 1.0 0.00 0.00 0.00 75 1008.3
20260502223109 51 225 3.0 4.0 0.00 0.00 0.00 74 1008.5
20260502222603 51 270 0.0 2.0 0.00 0.00 0.00 75 1008.4
20260502222058 51 0 0.0 2.0 0.00 0.00 0.00 74 1008.4
20260502221553 51 90 1.0 2.0 0.00 0.00 0.00 74 1008.3
20260502221048 51 135 3.0 6.0 0.00 0.00 0.00 72 1008.6
20260502220543 51 180 6.0 6.0 0.00 0.00 0.00 73 1008.7
20260502220037 51 225 3.0 4.0 0.00 0.00 0.00 73 1008.7
20260502215532 51 135 0.0 0.0 0.00 0.00 0.00 73 1008.6
20260502215027 52 135 2.0 7.0 0.00 0.00 0.00 72 1008.4
20260502214522 52 148 4.0 4.0 0.00 0.00 0.00 72 1008.6
20260502214017 52 45 0.0 2.0 0.00 0.00 0.00 72 1008.5
20260502213511 52 36 2.0 3.0 0.00 0.00 0.00 71 1008.5
20260502212501 52 225 1.0 2.0 0.00 0.00 0.00 70 1008.8
20260502211956 52 0 0.0 3.0 0.00 0.00 0.00 70 1008.9
20260502211451 52 180 1.0 1.0 0.00 0.00 0.00 69 1009.0
20260502210945 52 45 0.0 0.0 0.00 0.00 0.00 69 1009.0
20260502210440 52 45 0.0 1.0 0.00 0.00 0.00 69 1009.0
20260502205935 53 0 0.0 2.0 0.00 0.00 0.00 69 1009.0
20260502205430 53 0 0.0 1.0 0.00 0.00 0.00 69 1009.1
20260502204925 53 175 1.0 2.0 0.00 0.00 0.00 69 1009.3
20260502204419 53 45 0.0 3.0 0.00 0.00 0.00 70 1009.1
20260502203914 52 90 0.0 3.0 0.00 0.00 0.00 69 1009.2
20260502203409 52 90 1.0 2.0 0.00 0.00 0.00 68 1009.2
20260502202905 52 85 0.0 1.0 0.00 0.00 0.00 68 1009.3
20260502202359 52 45 0.0 2.0 0.00 0.00 0.00 68 1009.3
20260502201853 53 90 0.0 1.0 0.00 0.00 0.00 68 1009.3
20260502201348 53 0 3.0 5.0 0.00 0.00 0.00 69 1009.4
20260502200843 53 13 3.0 5.0 0.00 0.00 0.00 68 1009.2
20260502200338 53 45 1.0 5.0 0.00 0.00 0.00 68 1009.3
20260502195833 53 27 0.0 2.0 0.00 0.00 0.00 68 1009.2
20260502195327 53 315 5.0 5.0 0.00 0.00 0.00 68 1009.3
20260502194822 53 0 0.0 3.0 0.00 0.00 0.00 67 1009.4
20260502194317 53 36 1.0 2.0 0.00 0.00 0.00 65 1009.3
20260502193812 53 45 0.0 2.0 0.00 0.00 0.00 65 1009.3
20260502193307 53 0 1.0 1.0 0.00 0.00 0.00 64 1009.2
20260502192801 53 225 0.0 2.0 0.00 0.00 0.00 63 1009.1
20260502192256 54 90 0.0 3.0 0.00 0.00 0.00 64 1009.2
20260502191751 54 225 2.0 2.0 0.00 0.00 0.00 63 1009.0
20260502191246 54 283 1.0 6.0 0.00 0.00 0.00 62 1009.0
20260502190741 54 243 5.0 6.0 0.00 0.00 0.02 61 1009.0
20260502190236 54 229 3.0 5.0 0.00 0.00 0.02 61 1009.0
20260502185730 55 270 5.0 7.0 0.00 0.00 0.02 60 1008.9
20260502185225 55 225 2.0 4.0 0.00 0.00 0.02 60 1009.0
20260502184720 56 337 1.0 6.0 0.00 0.00 0.02 59 1008.9
20260502184215 56 270 4.0 5.0 0.00 0.00 0.02 59 1008.9
20260502183710 57 261 3.0 7.0 0.00 0.00 0.02 58 1008.9
20260502183204 57 270 4.0 7.0 0.00 0.00 0.02 56 1008.8
20260502182659 58 270 10.0 12.0 0.00 0.00 0.02 55 1008.8
20260502182154 58 288 3.0 8.0 0.00 0.00 0.02 54 1008.8
20260502181649 59 301 7.0 11.0 0.00 0.00 0.02 53 1009.0
20260502181144 59 261 6.0 8.0 0.00 0.00 0.02 53 1009.0
20260502180638 60 270 4.0 5.0 0.00 0.00 0.02 51 1009.0
20260502180133 59 265 8.0 17.0 0.00 0.00 0.02 51 1008.8
20260502164010 61 135 11.0 15.0 0.00 0.00 0.02 51 1009.3
20260502162957 61 166 10.0 13.0 0.00 0.00 0.02 51 1009.4
20260502162451 61 180 13.0 13.0 0.00 0.00 0.02 51 1009.4
20260502161946 61 175 10.0 15.0 0.00 0.00 0.02 52 1009.5
20260502161442 61 157 18.0 21.0 0.00 0.00 0.02 51 1009.4
20260502160936 61 153 12.0 16.0 0.00 0.00 0.02 51 1009.6
20260502160431 62 135 15.0 17.0 0.00 0.00 0.02 49 1009.6
20260502151844 61 175 11.0 17.0 0.00 0.00 0.02 54 1010.3
20260502151339 61 171 13.0 17.0 0.00 0.00 0.02 54 1010.3
20260502150833 61 148 13.0 17.0 0.00 0.00 0.02 54 1010.4
20260502150328 61 148 14.0 17.0 0.00 0.00 0.02 54 1010.4
20260502130629 60 180 22.0 22.0 0.00 0.00 0.02 56 1012.0
20260502130124 60 148 19.0 21.0 0.00 0.00 0.02 56 1012.1
20260502123558 59 148 13.0 20.0 0.00 0.00 0.02 57 1012.4
20260502123052 59 135 20.0 23.0 0.00 0.00 0.02 56 1012.4
20260502122548 60 180 15.0 21.0 0.00 0.00 0.02 57 1012.5
20260502122042 59 166 16.0 19.0 0.00 0.00 0.02 58 1012.7
20260502121537 59 148 14.0 21.0 0.00 0.00 0.02 58 1012.7
20260502121032 59 180 18.0 19.0 0.00 0.00 0.02 58 1012.8
20260502120526 59 180 17.0 19.0 0.00 0.00 0.02 58 1012.8
20260502115516 59 171 15.0 22.0 0.00 0.00 0.02 58 1013.0
20260502115011 59 180 17.0 19.0 0.00 0.00 0.02 58 1013.0
20260502114506 59 153 15.0 21.0 0.00 0.00 0.02 57 1013.1
20260502114001 59 180 22.0 22.0 0.00 0.00 0.02 57 1013.2
20260502113456 59 153 15.0 21.0 0.00 0.00 0.02 58 1013.2
20260502112950 59 180 17.0 24.0 0.00 0.00 0.02 58 1013.3
20260502112445 59 180 17.0 25.0 0.00 0.00 0.02 57 1013.2
20260502111940 59 180 17.0 25.0 0.00 0.00 0.02 58 1013.3
20260502111435 58 189 18.0 21.0 0.00 0.00 0.02 58 1013.2
20260502110930 58 198 19.0 23.0 0.00 0.00 0.02 57 1013.3
20260502110424 59 180 21.0 21.0 0.00 0.00 0.02 57 1013.3
20260502105919 59 189 21.0 24.0 0.00 0.00 0.02 57 1013.3
20260502105414 59 189 14.0 32.0 0.00 0.00 0.02 57 1013.4
20260502104909 59 180 22.0 28.0 0.00 0.00 0.02 57 1013.2
20260502104404 59 171 21.0 28.0 0.00 0.00 0.02 57 1013.5
20260502103858 59 189 21.0 28.0 0.00 0.00 0.02 57 1013.4
20260502103353 60 180 21.0 22.0 0.00 0.00 0.02 56 1013.5
20260502102848 60 180 21.0 21.0 0.00 0.00 0.02 57 1013.5
20260502102343 59 180 13.0 20.0 0.00 0.00 0.02 58 1013.5
20260502101838 59 153 16.0 23.0 0.00 0.00 0.02 57 1013.6
20260502101332 59 153 18.0 22.0 0.00 0.00 0.02 58 1013.7
20260502100827 59 180 14.0 21.0 0.00 0.00 0.02 58 1013.7
20260502100322 59 162 18.0 22.0 0.00 0.00 0.02 58 1013.8
20260502091230 58 180 22.0 31.0 0.00 0.00 0.02 59 1014.2
20260502090725 58 144 21.0 28.0 0.00 0.00 0.02 59 1014.0
20260502090220 58 180 23.0 25.0 0.00 0.00 0.02 59 1014.2
20260502071530 57 157 20.0 25.0 0.00 0.00 0.02 61 1014.5
20260502071025 57 175 15.0 26.0 0.00 0.00 0.02 60 1014.6
20260502070520 57 189 15.0 30.0 0.00 0.00 0.02 60 1014.6
20260502070015 57 184 20.0 22.0 0.00 0.00 0.02 59 1014.6
20260502065510 57 180 15.0 20.0 0.00 0.00 0.02 60 1014.6
20260502065004 57 180 17.0 20.0 0.00 0.00 0.01 59 1014.7
20260502064459 58 180 12.0 18.0 0.00 0.00 0.00 60 1014.7
20260502063954 57 171 15.0 15.0 0.00 0.00 0.00 60 1014.8
20260502063449 57 193 10.0 16.0 0.00 0.00 0.00 61 1014.7
20260502062944 57 180 10.0 18.0 0.00 0.00 0.00 61 1014.7
20260502062438 56 180 17.0 17.0 0.00 0.00 0.00 62 1014.7
20260502061933 56 139 13.0 20.0 0.00 0.00 0.00 62 1014.9
20260502061428 56 184 14.0 16.0 0.00 0.00 0.00 63 1014.9
20260502060923 56 166 12.0 19.0 0.00 0.00 0.00 63 1015.0
20260502060418 55 180 14.0 16.0 0.00 0.00 0.00 63 1015.0
20260502055912 55 171 17.0 18.0 0.00 0.00 0.00 64 1014.8
20260502055407 55 171 13.0 18.0 0.00 0.00 0.00 65 1015.1
20260502054902 55 162 7.0 17.0 0.00 0.00 0.00 66 1015.0
20260502054357 54 166 14.0 17.0 0.00 0.00 0.00 67 1015.1
20260502053852 54 171 11.0 18.0 0.00 0.00 0.00 68 1015.1
20260502053346 53 180 14.0 15.0 0.00 0.00 0.00 70 1015.1
20260502052841 53 180 11.0 11.0 0.00 0.00 0.00 73 1015.2
20260502052336 52 148 10.0 12.0 0.00 0.00 0.00 75 1015.2
20260502051831 51 175 5.0 11.0 0.00 0.00 0.00 77 1015.2
20260502051326 50 180 8.0 10.0 0.00 0.00 0.00 80 1015.3
20260502050820 49 157 4.0 9.0 0.00 0.00 0.00 81 1015.3
20260502050315 47 180 6.0 9.0 0.00 0.00 0.00 82 1015.4
20260502045810 46 148 4.0 4.0 0.00 0.00 0.00 82 1015.4
20260502045306 44 135 2.0 3.0 0.00 0.00 0.00 82 1015.4
20260502044800 42 175 2.0 2.0 0.00 0.00 0.00 81 1015.5
20260502044254 40 135 0.0 1.0 0.00 0.00 0.00 80 1015.6
20260502043749 40 90 0.0 2.0 0.00 0.00 0.00 79 1015.5
20260502043244 39 13 2.0 3.0 0.00 0.00 0.00 80 1015.6
20260502042739 39 0 3.0 3.0 0.00 0.00 0.00 79 1015.7
20260502042234 39 0 1.0 2.0 0.00 0.00 0.00 78 1015.7
20260502041728 39 45 1.0 2.0 0.00 0.00 0.00 78 1015.7
20260502041223 39 45 1.0 1.0 0.00 0.00 0.00 78 1015.8
20260502040932 39 45 1.0 1.0 0.00 0.00 0.00 78 1015.8
20260502040930 39 45 1.0 1.0 0.00 0.00 0.00 78 1015.7
20260502040928 38 0 2.0 3.0 0.00 0.00 0.00 78 1015.9
20260502040926 38 22 1.0 2.0 0.00 0.00 0.00 77 1016.0
20260502040718 39 45 1.0 1.0 0.00 0.00 0.00 78 1015.8
20260502040213 39 45 1.0 1.0 0.00 0.00 0.00 78 1015.7
20260502035708 39 45 0.0 3.0 0.00 0.00 0.00 78 1015.9
20260502035202 38 0 2.0 3.0 0.00 0.00 0.00 78 1015.9
20260502034657 38 22 1.0 2.0 0.00 0.00 0.00 77 1016.0
20260502033644 38 0 3.0 3.0 0.00 0.00 0.00 77 1016.1
20260502033139 38 45 1.0 3.0 0.00 0.00 0.00 77 1016.2
20260502032633 38 0 3.0 3.0 0.00 0.00 0.00 77 1016.2
20260502032128 38 45 1.0 3.0 0.00 0.00 0.00 77 1016.3
20260502031623 38 9 2.0 3.0 0.00 0.00 0.00 77 1016.4
20260502031118 38 0 2.0 3.0 0.00 0.00 0.00 76 1016.5
20260502030613 38 18 2.0 3.0 0.00 0.00 0.00 76 1016.5
20260502030107 38 0 3.0 4.0 0.00 0.00 0.00 76 1016.6